Change the Weather History Date:

Wednesday, March 26, 2014

  Actual Average Record
Temperature  
Mean Temperature 64 °F -  
Max Temperature 78 °F - - ()
Min Temperature 50 °F - - ()
Degree Days  
Heating Degree Days 1    
Growing Degree Days 14 (Base 50)    
Moisture  
Dew Point 53 °F    
Average Humidity 70    
Maximum Humidity 100    
Minimum Humidity 26    
Precipitation  
Precipitation 0.00 in - - ()
Sea Level Pressure  
Sea Level Pressure 30.14 in    
Wind  
Wind Speed 8 mph ()    
Max Wind Speed 17 mph    
Max Gust Speed -    
T = Trace of Precipitation, MM = Missing Value Source: Averaged Metar Reports

Daily Weather History Graph

Daily Weather History Graph

Search for Another Location

Airport or City:

Trip Planner

Search our weather history database for the weather conditions in past years. The results will help you decide how hot, cold, wet, or windy it might be!

Date:

Astronomy

Mar. 26, 2014 Rise Set
Actual Time 5:34 AM AWST 5:31 PM AWST
Civil Twilight 5:10 AM AWST 5:55 PM AWST
Nautical Twilight 4:42 AM AWST 6:23 PM AWST
Astronomical Twilight 4:14 AM AWST 6:51 PM AWST
Moon 12:26 AM AWST (3/26) 2:09 PM AWST (3/26)
Length of Visible Light 12h 45m
Length of Day
11h 57m
Waning Crescent, 27% of the Moon is Illuminated
Mar 26
Waning Crescent
Mar 31
New
Apr 7
First Quarter
Apr 15
Full
Apr 22
Last Quarter

Hourly Weather History & Observations

Time (AWST) Temp. Dew Point Humidity Pressure Visibility Wind Dir Wind Speed Gust Speed Precip Events Conditions
12:00 AM 55 °F 55 °F 98% 30.22 in - SE 6.9 mph - -  
12:00 AM 55.4 °F 55.4 °F 100% 30.21 in - SE 6.9 mph - N/A   Unknown
12:30 AM 55.4 °F 55.4 °F 100% 30.21 in - SSE 6.9 mph - N/A   Unknown
1:00 AM 53.6 °F 53.6 °F 100% 30.21 in - South 8.1 mph - N/A   Unknown
1:30 AM 53.6 °F 53.6 °F 100% 30.18 in - South 5.8 mph - N/A   Unknown
2:00 AM 53 °F 53 °F 100% 30.19 in - South 6.9 mph - -  
2:00 AM 53.6 °F 53.6 °F 100% 30.18 in - South 6.9 mph - N/A   Unknown
2:30 AM 53.6 °F 53.6 °F 100% 30.18 in - SSE 8.1 mph - N/A   Unknown
3:00 AM 53 °F 53 °F 100% 30.19 in - SSE 8.1 mph - -  
3:00 AM 53.6 °F 53.6 °F 100% 30.18 in - SSE 8.1 mph - N/A   Unknown
3:30 AM 51.8 °F 51.8 °F 100% 30.18 in - SE 6.9 mph - N/A   Unknown
4:00 AM 50.0 °F 50.0 °F 100% 30.18 in - SE 8.1 mph - N/A   Unknown
4:30 AM 50.0 °F 50.0 °F 100% 30.18 in - SE 5.8 mph - N/A   Unknown
5:00 AM 51 °F 51 °F 100% 30.17 in - SE 6.9 mph - -  
5:00 AM 51.8 °F 51.8 °F 100% 30.18 in - SE 6.9 mph - N/A   Unknown
5:30 AM 50.0 °F 50.0 °F 100% 30.18 in - East 5.8 mph - N/A   Unknown
6:00 AM 51 °F - % 30.19 in - East 4.6 mph - -  
6:00 AM - - N/A% 30.18 in - East 4.6 mph - N/A   Unknown
6:30 AM 53.6 °F 53.6 °F 100% 30.18 in - ENE 3.5 mph - N/A   Unknown
7:00 AM 57.2 °F 57.2 °F 100% 30.21 in - ENE 5.8 mph - N/A   Unknown
7:30 AM 62.6 °F 62.6 °F 100% 30.21 in - East 9.2 mph - N/A   Unknown
8:00 AM 65 °F 55 °F 61% 30.20 in - ENE 12.7 mph - -  
8:00 AM 64.4 °F 55.4 °F 73% 30.21 in - ENE 12.7 mph - N/A   Unknown
8:30 AM 66.2 °F 53.6 °F 64% 30.21 in - ENE 13.8 mph - N/A   Unknown
9:00 AM 67 °F 52 °F 48% 30.20 in - East 11.5 mph - -  
9:00 AM 68.0 °F 51.8 °F 56% 30.21 in - East 11.5 mph - N/A   Unknown
9:30 AM 69.8 °F 51.8 °F 53% 30.18 in - ENE 10.4 mph - N/A   Unknown
10:00 AM 71.6 °F 50.0 °F 46% 30.18 in - ENE 9.2 mph - N/A   Unknown
10:30 AM 71.6 °F 51.8 °F 50% 30.15 in - ENE 10.4 mph - N/A   Unknown
11:00 AM 71 °F 51 °F 37% 30.15 in - ESE 9.2 mph - -  
11:00 AM 71.6 °F 50.0 °F 46% 30.15 in - ESE 9.2 mph - N/A   Unknown
11:30 AM 71.6 °F 50.0 °F 46% 30.15 in - ESE 9.2 mph - N/A   Unknown
12:00 PM 72 °F 50 °F 35% 30.13 in - ESE 10.4 mph - -  
12:00 PM 71.6 °F 50.0 °F 46% 30.12 in - ESE 10.4 mph - N/A   Unknown
12:30 PM 75.2 °F 50.0 °F 41% 30.12 in - SE 9.2 mph - N/A   Unknown
1:00 PM 75.2 °F 50.0 °F 41% 30.09 in - SE 9.2 mph - N/A   Unknown
1:30 PM 75.2 °F 50.0 °F 41% 30.09 in - ESE 9.2 mph - N/A   Unknown
2:00 PM 76 °F 50 °F 29% 30.08 in - East 10.4 mph - -  
2:00 PM 77.0 °F 50.0 °F 39% 30.09 in - East 10.4 mph - N/A   Unknown
2:30 PM 77.0 °F 48.2 °F 36% 30.09 in - SSE 9.2 mph - N/A   Unknown
3:00 PM 78 °F 49 °F 26% 30.07 in - ESE 10.4 mph - -  
3:00 PM 77.0 °F 50.0 °F 39% 30.06 in - ESE 10.4 mph - N/A   Unknown
3:30 PM 77.0 °F 50.0 °F 39% 30.06 in - SE 9.2 mph - N/A   Unknown
4:00 PM 77.0 °F 50.0 °F 39% 30.06 in - SSE 10.4 mph - N/A   Unknown
4:30 PM 75.2 °F 50.0 °F 41% 30.06 in - ESE 11.5 mph - N/A   Unknown
5:00 PM 74 °F 49 °F 30% 30.08 in - SSE 12.7 mph - -  
5:00 PM 75.2 °F 50.0 °F 41% 30.09 in - SSE 12.7 mph - N/A   Unknown
5:30 PM 71.6 °F 50.0 °F 46% 30.09 in - SE 13.8 mph - N/A   Unknown
6:00 PM 70 °F 51 °F 41% 30.09 in - SE 15.0 mph - -  
6:00 PM 69.8 °F 51.8 °F 53% 30.09 in - SE 15.0 mph - N/A   Unknown
6:30 PM 68.0 °F 51.8 °F 56% 30.09 in - SE 17.3 mph - N/A   Unknown
7:00 PM 66.2 °F 51.8 °F 60% 30.12 in - SE 17.3 mph - N/A   Unknown
7:30 PM 64.4 °F 51.8 °F 64% 30.12 in - SE 16.1 mph - N/A   Unknown
8:00 PM 63 °F 53 °F 62% 30.13 in - SE 15.0 mph - -  
8:00 PM 62.6 °F 53.6 °F 72% 30.12 in - SE 15.0 mph - N/A   Unknown
8:30 PM 62.6 °F 53.6 °F 72% 30.12 in - SE 15.0 mph - N/A   Unknown
9:00 PM 61 °F 57 °F 83% 30.13 in - SE 13.8 mph - -  
9:00 PM 60.8 °F 57.2 °F 88% 30.12 in - SE 13.8 mph - N/A   Unknown
9:30 PM 60.8 °F 59.0 °F 94% 30.12 in - SE 10.4 mph - N/A   Unknown
10:00 PM 59.0 °F 59.0 °F 100% 30.12 in - ESE 9.2 mph - N/A   Unknown
10:30 PM 59.0 °F 57.2 °F 94% 30.12 in - ESE 8.1 mph - N/A   Unknown
11:00 PM 58 °F 57 °F 97% 30.11 in - ESE 8.1 mph - -  
11:00 PM 57.2 °F 57.2 °F 100% 30.12 in - ESE 8.1 mph - N/A   Unknown
11:30 PM 57.2 °F 57.2 °F 100% 30.09 in - ESE 8.1 mph - N/A   Unknown